OneWeb SL0145

operational
NORAD ID: 47260 Int'l Des: 2020-100 Owner: ONEWEB Country: UK Constellation: oneweb
LEOCIRCULARPOLARONEWEB_TYPE

About OneWeb SL0145

Description loading...

Live Position

Loading 3D Globe...

Upcoming Passes

Altitude History

Altitude vs Time

uPlot chart will show altitude changes over time

Two-Line Element Set

1 47260U 20100C 25353.02093687 .00000359 00000-0 96274-3 0 9993
2 47260 87.8935 26.4261 0001953 88.0562 272.0790 13.12349626241099
Epoch: Dec 19, 2025 • Age: 13 hours

Current Status

Altitude 1224.0 km
Velocity 7.25 km/s
Sub-Earth Point 64.82°N, 97.77°E
Launch Date Dec 18, 2020
Age 5 years
Type internet

Technical Details

Classification Payload
Mass 148.00 kg
Dry Mass 140.00 kg
Total Mass 148.00 kg
Length 1.30 m
Diameter 1.00 m
Span 5.00 m
Shape Trapezoid+2 pan
Manufacturer ONEWUS
Bus Type ARROW
Phase Status In Orbit
Owner/State ONEWEB/UK

Large Constellations

Loading constellations...